GW1009 Weather Reports


Display with metric or nautical units.
time (UTC)temp
F
wind
direction
speed
MPH
gust
MPH
rain 1hr
in
rain 24hr
in
rain mn
in
humidity
%
barometer
mb
20260905061048 60 270 0.0 0.0 0.00 0.00 0.00 88 1010.4
20260905060549 60 270 0.0 0.0 0.00 0.00 0.00 87 1010.3
20260905060046 60 270 0.0 0.0 0.00 0.00 0.00 87 1010.4
20260905055543 60 270 0.0 0.0 0.00 0.00 0.00 87 1010.4
20260905055043 60 270 0.0 0.0 0.00 0.00 0.00 86 1010.5
20260905054546 60 270 0.0 0.0 0.00 0.00 0.00 86 1010.6
20260905054042 60 270 0.0 0.0 0.00 0.00 0.00 86 1010.5
20260905053542 60 270 0.0 0.0 0.00 0.00 0.00 86 1010.6
20260905053100 60 270 0.0 0.0 0.00 0.00 0.00 86 1010.7
20260905052541 60 312 0.0 0.0 0.00 0.00 0.00 86 1010.7
20260905052040 60 251 0.0 0.0 0.00 0.00 0.00 86 1010.7
20260905051539 60 251 0.0 0.0 0.00 0.00 0.00 86 1010.7
20260905051039 60 293 0.0 0.0 0.00 0.00 0.00 86 1010.8
20260905050539 60 293 0.0 0.0 0.00 0.00 0.00 86 1010.8
20260905050039 60 293 0.0 0.0 0.00 0.00 0.00 86 1010.8
20260905045540 60 293 0.0 0.0 0.00 0.00 0.00 87 1010.8
20260905045038 60 293 0.0 0.0 0.00 0.00 0.00 87 1010.8
20260905044538 60 293 0.0 0.0 0.00 0.00 0.00 87 1010.8
20260905044037 60 293 0.0 0.0 0.00 0.00 0.00 87 1010.9
20260905043537 60 293 0.0 0.0 0.00 0.00 0.00 87 1010.9
20260905043037 60 293 0.0 0.0 0.00 0.00 0.00 87 1010.9
20260905042538 60 292 0.0 0.0 0.00 0.00 0.00 88 1010.9
20260905042034 60 294 0.0 0.0 0.00 0.00 0.00 88 1010.9
20260905041532 60 294 0.0 0.0 0.00 0.00 0.00 88 1010.9
20260905041032 59 293 0.0 0.0 0.00 0.00 0.00 88 1010.9
20260905040534 59 293 0.0 0.0 0.00 0.00 0.00 89 1010.9
20260905040030 59 293 0.0 0.0 0.00 0.00 0.00 89 1010.9
20260905035531 59 293 0.0 0.0 0.00 0.00 0.00 89 1011.0
20260905035031 59 293 0.0 0.0 0.00 0.00 0.00 89 1011.0
20260905034530 59 293 0.0 0.0 0.00 0.00 0.00 89 1010.9
20260905034029 59 293 0.0 0.0 0.00 0.00 0.00 89 1010.9
20260905033531 59 293 0.0 0.0 0.00 0.00 0.00 88 1010.9
20260905033041 59 293 0.0 0.0 0.00 0.00 0.00 88 1010.9
20260905032528 59 293 0.0 0.0 0.00 0.00 0.00 88 1010.9
20260905032028 59 293 0.0 0.0 0.00 0.00 0.00 87 1010.9
20260905031529 60 293 0.0 0.0 0.00 0.00 0.00 87 1010.8
20260905031032 60 293 0.0 0.0 0.00 0.00 0.00 86 1010.8
20260905030528 60 293 0.0 0.0 0.00 0.00 0.00 86 1010.8
20260905030028 60 293 0.0 0.0 0.00 0.00 0.00 86 1010.8
20260905025531 60 293 0.0 0.0 0.00 0.00 0.00 86 1010.8
20260905025028 60 293 0.0 0.0 0.00 0.00 0.00 86 1010.9
20260905024528 60 293 0.0 0.0 0.00 0.00 0.00 87 1010.9
20260905024031 60 293 0.0 0.0 0.00 0.00 0.00 87 1011.0
20260905023527 60 293 0.0 0.0 0.00 0.00 0.00 87 1011.1
20260905023028 60 293 0.0 0.0 0.00 0.00 0.00 87 1011.1
20260905022527 59 293 0.0 0.0 0.00 0.00 0.00 88 1011.1
20260905022027 59 293 0.0 0.0 0.00 0.00 0.00 88 1011.2
20260905021534 59 293 0.0 0.0 0.00 0.00 0.00 88 1011.2
20260905021028 59 293 0.0 0.0 0.00 0.00 0.00 87 1011.3
20260905020526 59 293 0.0 0.0 0.00 0.00 0.00 87 1011.3
20260905020029 59 293 0.0 0.0 0.00 0.00 0.00 87 1011.3
20260905015525 59 293 0.0 0.0 0.00 0.00 0.00 87 1011.2
20260905015030 59 293 0.0 0.0 0.00 0.00 0.00 87 1011.3
20260905014526 59 293 0.0 0.0 0.00 0.00 0.00 87 1011.4
20260905014024 59 293 0.0 0.0 0.00 0.00 0.00 86 1011.3
20260905013525 59 293 0.0 0.0 0.00 0.00 0.00 86 1011.4
20260905013023 60 293 0.0 0.0 0.00 0.00 0.00 85 1011.4
20260905012524 60 293 0.0 0.0 0.00 0.00 0.00 85 1011.4
20260905012022 60 294 0.0 2.0 0.00 0.00 0.00 84 1011.4
20260905011523 60 294 0.0 2.0 0.00 0.00 0.00 84 1011.3
20260905011022 60 294 0.0 0.0 0.00 0.00 0.00 84 1011.3
20260905010524 60 294 0.0 0.0 0.00 0.00 0.00 83 1011.2
20260905010021 60 294 0.0 0.0 0.00 0.00 0.00 82 1011.3
20260905005522 60 294 0.0 0.0 0.00 0.00 0.00 82 1011.4
20260905005022 60 294 0.0 0.0 0.00 0.00 0.00 82 1011.3
20260905004524 61 294 0.0 0.0 0.00 0.00 0.00 81 1011.2
20260905004021 61 294 0.0 0.0 0.00 0.00 0.00 81 1011.2
20260905003524 61 294 0.0 0.0 0.00 0.00 0.00 81 1011.2
20260905003021 62 294 0.0 0.0 0.00 0.00 0.00 78 1011.1
20260905002521 62 294 0.0 0.0 0.00 0.00 0.00 78 1011.1
20260905002021 62 294 0.0 0.0 0.00 0.00 0.00 77 1011.1
20260905001521 63 294 0.0 1.0 0.00 0.00 0.00 76 1011.0
20260905001020 63 294 0.0 1.0 0.00 0.00 0.00 75 1011.1
20260905000520 64 294 0.0 2.0 0.00 0.00 0.00 73 1010.9
20260905000020 64 293 0.0 1.0 0.00 0.00 0.00 73 1010.9
20260904235519 64 360 0.0 1.0 0.00 0.00 0.00 71 1010.9
20260904235019 64 293 0.0 3.0 0.00 0.00 0.00 71 1011.0
20260904234519 65 293 0.0 4.0 0.00 0.00 0.00 70 1010.9
20260904234019 65 293 1.0 6.0 0.00 0.00 0.00 69 1010.9
20260904233519 65 284 0.0 6.0 0.00 0.00 0.00 69 1010.9
20260904233020 66 286 0.0 3.0 0.00 0.00 0.00 69 1010.9
20260904232521 66 305 0.0 3.0 0.00 0.00 0.00 68 1010.8
20260904232018 66 306 1.0 5.0 0.00 0.00 0.00 67 1010.8
20260904231522 66 306 2.0 7.0 0.00 0.00 0.00 66 1010.9
20260904231018 66 294 3.0 7.0 0.00 0.00 0.00 66 1010.7
20260904230518 67 298 3.0 8.0 0.00 0.00 0.00 66 1010.8
20260904230021 67 307 3.0 9.0 0.00 0.00 0.00 66 1010.8
20260904225518 67 300 4.0 9.0 0.00 0.00 0.00 65 1010.8
20260904225018 67 304 4.0 8.0 0.00 0.00 0.00 65 1010.8
20260904224517 67 294 4.0 8.0 0.00 0.00 0.00 65 1010.7
20260904224017 67 291 3.0 8.0 0.00 0.00 0.00 65 1010.7
20260904223518 68 253 2.0 10.0 0.00 0.00 0.00 64 1010.7
20260904223023 68 286 2.0 10.0 0.00 0.00 0.00 63 1010.6
20260904222520 68 278 3.0 9.0 0.00 0.00 0.00 64 1010.6
20260904222015 68 294 4.0 9.0 0.00 0.00 0.00 63 1010.7
20260904221515 68 285 4.0 9.0 0.00 0.00 0.00 63 1010.7
20260904221015 68 325 3.0 9.0 0.00 0.00 0.00 64 1010.6
20260904220518 68 299 6.0 10.0 0.00 0.00 0.00 64 1010.6
20260904220015 68 309 5.0 10.0 0.00 0.00 0.00 64 1010.5
20260904215515 68 311 5.0 12.0 0.00 0.00 0.00 63 1010.5
20260904215017 69 311 6.0 12.0 0.00 0.00 0.00 62 1010.5
20260904214518 69 307 6.0 15.0 0.00 0.00 0.00 62 1010.6
20260904214013 70 293 8.0 17.0 0.00 0.00 0.00 61 1010.5
20260904213514 70 299 8.0 15.0 0.00 0.00 0.00 59 1010.6
20260904213025 71 304 7.0 16.0 0.00 0.00 0.00 58 1010.5
20260904212516 71 317 9.0 17.0 0.00 0.00 0.00 56 1010.5
20260904212012 71 285 7.0 18.0 0.00 0.00 0.00 56 1010.5
20260904211518 71 288 9.0 18.0 0.00 0.00 0.00 54 1010.6
20260904211012 71 311 7.0 18.0 0.00 0.00 0.00 55 1010.5
20260904210512 71 310 9.0 16.0 0.00 0.00 0.00 54 1010.6
20260904210023 71 300 6.0 14.0 0.00 0.00 0.00 56 1010.6
20260904205512 71 309 7.0 15.0 0.00 0.00 0.00 56 1010.6
20260904205011 71 306 10.0 15.0 0.00 0.00 0.00 56 1010.6
20260904204520 71 290 8.0 16.0 0.00 0.00 0.00 57 1010.7
20260904204011 71 286 9.0 18.0 0.00 0.00 0.00 56 1010.7
20260904203511 71 277 6.0 16.0 0.00 0.00 0.00 57 1010.7
20260904203011 71 281 8.0 16.0 0.00 0.00 0.00 56 1010.7
20260904202515 71 286 7.0 17.0 0.00 0.00 0.00 55 1010.8
20260904202012 72 285 10.0 17.0 0.00 0.00 0.00 53 1010.9
20260904201510 72 309 9.0 20.0 0.00 0.00 0.00 55 1010.8
20260904201010 72 311 10.0 17.0 0.00 0.00 0.00 53 1010.8
20260904200515 72 302 9.0 17.0 0.00 0.00 0.00 56 1010.9
20260904200009 72 315 9.0 17.0 0.00 0.00 0.00 55 1010.9
20260904195509 72 283 9.0 15.0 0.00 0.00 0.00 56 1010.9
20260904195008 72 325 8.0 16.0 0.00 0.00 0.00 54 1010.9
20260904194508 72 288 7.0 17.0 0.00 0.00 0.00 54 1010.9
20260904194008 72 274 9.0 15.0 0.00 0.00 0.00 57 1010.9
20260904193508 72 255 7.0 14.0 0.00 0.00 0.00 55 1011.0
20260904193008 71 295 6.0 17.0 0.00 0.00 0.00 57 1010.9
20260904192508 72 316 9.0 17.0 0.00 0.00 0.00 56 1010.9
20260904192007 72 305 9.0 16.0 0.00 0.00 0.00 57 1011.0
20260904191510 72 326 6.0 15.0 0.00 0.00 0.00 55 1011.0
20260904191007 72 292 6.0 16.0 0.00 0.00 0.00 56 1010.9
20260904190507 73 286 9.0 16.0 0.00 0.00 0.00 55 1010.9
20260904190007 72 318 7.0 20.0 0.00 0.00 0.00 58 1010.9
20260904185506 72 305 10.0 20.0 0.00 0.00 0.00 54 1010.9
20260904185006 73 290 8.0 16.0 0.00 0.00 0.00 54 1011.0
20260904184506 73 284 10.0 21.0 0.00 0.00 0.00 53 1011.0
20260904184006 73 282 7.0 21.0 0.00 0.00 0.00 56 1011.1
20260904183506 73 292 7.0 18.0 0.00 0.00 0.00 56 1011.2
20260904183005 73 294 9.0 18.0 0.00 0.00 0.00 56 1011.1
20260904182505 73 278 10.0 17.0 0.00 0.00 0.00 55 1011.0
20260904182004 73 321 8.0 14.0 0.00 0.00 0.00 56 1011.0
20260904181504 73 276 7.0 19.0 0.00 0.00 0.00 56 1011.2
20260904181006 73 296 11.0 19.0 0.00 0.00 0.00 55 1011.1
20260904180506 73 277 8.0 17.0 0.00 0.00 0.00 57 1011.2
20260904180003 73 289 8.0 17.0 0.00 0.00 0.00 59 1011.3
20260904175503 73 279 8.0 18.0 0.00 0.00 0.00 59 1011.3
20260904175005 73 319 8.0 20.0 0.00 0.00 0.00 57 1011.1
20260904174502 72 313 12.0 20.0 0.00 0.00 0.00 61 1011.3
20260904174000 72 305 7.0 13.0 0.00 0.00 0.00 62 1011.2
20260904173501 72 281 7.0 13.0 0.00 0.00 0.00 61 1011.3
20260904173127 72 211 7.0 16.0 0.00 0.00 0.00 63 1011.4
20260904172600 72 289 9.0 16.0 0.00 0.00 0.00 63 1011.3
20260904172100 72 289 7.0 15.0 0.00 0.00 0.00 62 1011.4
20260904171609 71 338 9.0 15.0 0.00 0.00 0.00 63 1011.5
20260904171101 71 295 7.0 13.0 0.00 0.00 0.00 63 1011.5
20260904170600 71 300 8.0 14.0 0.00 0.00 0.00 62 1011.5
20260904170059 71 327 7.0 16.0 0.00 0.00 0.00 64 1011.6
20260904165558 71 302 11.0 16.0 0.00 0.00 0.00 62 1011.6
20260904165058 70 308 9.0 15.0 0.00 0.00 0.00 63 1011.7
20260904164559 71 302 10.0 15.0 0.00 0.00 0.00 62 1011.5
20260904164057 71 311 4.0 14.0 0.00 0.00 0.00 61 1011.4
20260904163556 71 317 7.0 17.0 0.00 0.00 0.00 64 1011.4
20260904163056 70 313 9.0 17.0 0.00 0.00 0.00 62 1011.5
20260904162556 70 302 8.0 16.0 0.00 0.00 0.00 62 1011.6
20260904162058 70 311 6.0 14.0 0.00 0.00 0.00 63 1011.5
20260904161556 70 309 7.0 15.0 0.00 0.00 0.00 63 1011.5
20260904161055 71 338 11.0 15.0 0.00 0.00 0.00 59 1011.5
20260904160554 72 315 6.0 14.0 0.00 0.00 0.00 63 1011.5
20260904160054 72 306 9.0 14.0 0.00 0.00 0.00 63 1011.4
20260904155553 71 328 5.0 15.0 0.00 0.00 0.00 65 1011.6
20260904155052 71 300 9.0 15.0 0.00 0.00 0.00 64 1011.6
20260904154552 71 315 10.0 15.0 0.00 0.00 0.00 63 1011.8
20260904154055 70 257 6.0 14.0 0.00 0.00 0.00 62 1011.7
20260904153551 70 290 8.0 14.0 0.00 0.00 0.00 65 1011.9
20260904153050 70 275 5.0 14.0 0.00 0.00 0.00 66 1011.8
20260904152552 70 301 7.0 14.0 0.00 0.00 0.00 65 1011.9
20260904152050 70 320 5.0 13.0 0.00 0.00 0.00 67 1011.9
20260904151549 70 294 8.0 14.0 0.00 0.00 0.00 67 1011.9
20260904151049 70 323 7.0 15.0 0.00 0.00 0.00 68 1011.9
20260904150547 70 327 9.0 15.0 0.00 0.00 0.00 69 1011.9
20260904150104 69 310 7.0 12.0 0.00 0.00 0.00 70 1011.8
20260904145547 69 313 6.0 12.0 0.00 0.00 0.00 71 1011.8
20260904145046 69 319 8.0 12.0 0.00 0.00 0.00 71 1011.9
20260904144545 69 300 6.0 12.0 0.00 0.00 0.00 71 1011.9
20260904144045 68 264 3.0 12.0 0.00 0.00 0.00 75 1012.1
20260904143544 68 311 6.0 12.0 0.00 0.00 0.00 71 1012.1
20260904143044 69 306 5.0 12.0 0.00 0.00 0.00 75 1012.0
20260904142543 68 283 4.0 12.0 0.00 0.00 0.00 77 1012.1
20260904142042 68 331 4.0 10.0 0.00 0.00 0.00 76 1012.0
20260904141545 67 324 4.0 11.0 0.00 0.00 0.00 77 1012.2
20260904141040 67 302 5.0 9.0 0.00 0.00 0.00 77 1012.2
20260904140541 67 292 5.0 12.0 0.00 0.00 0.00 78 1012.2
20260904140041 67 280 6.0 12.0 0.00 0.00 0.00 77 1012.1
20260904135539 68 284 5.0 13.0 0.00 0.00 0.00 76 1012.1
20260904135037 67 296 7.0 13.0 0.00 0.00 0.00 77 1011.9
20260904134546 67 304 2.0 9.0 0.00 0.00 0.00 81 1011.9
20260904134034 66 321 5.0 9.0 0.00 0.00 0.00 83 1011.7
20260904133533 66 284 4.0 10.0 0.00 0.00 0.00 83 1011.9
20260904133033 66 292 4.0 10.0 0.00 0.00 0.00 85 1011.7
20260904132535 66 263 2.0 7.0 0.00 0.00 0.00 86 1011.7
20260904132032 66 306 2.0 5.0 0.00 0.00 0.00 87 1011.6
20260904131529 65 294 3.0 7.0 0.00 0.00 0.00 87 1011.8
20260904131029 65 286 3.0 9.0 0.00 0.00 0.00 87 1011.8
20260904130533 65 305 5.0 10.0 0.00 0.00 0.00 86 1011.9
20260904130034 65 282 5.0 10.0 0.00 0.00 0.00 87 1011.7
20260904125527 65 311 5.0 10.0 0.00 0.00 0.00 89 1011.8
20260904125026 65 317 2.0 8.0 0.00 0.00 0.00 90 1011.7
20260904124525 65 292 3.0 8.0 0.00 0.00 0.00 91 1011.8
20260904124029 65 312 4.0 0.0 0.00 0.00 0.00 92 1011.9
20260904123522 64 294 2.0 8.0 0.00 0.00 0.00 91 1011.8
20260904123022 64 305 2.0 8.0 0.00 0.00 0.00 92 1011.8
20260904122525 64 299 3.0 7.0 0.00 0.00 0.00 93 1011.8
20260904122020 64 300 2.0 6.0 0.00 0.00 0.00 93 1011.7
20260904121519 63 311 3.0 6.0 0.00 0.00 0.00 93 1011.7
20260904121017 63 311 2.0 6.0 0.00 0.00 0.00 93 1011.7
20260904120518 63 279 3.0 6.0 0.00 0.00 0.00 93 1011.6
20260904120019 63 360 2.0 8.0 0.00 0.00 0.00 94 1011.6
20260904115520 63 282 2.0 8.0 0.00 0.00 0.00 94 1011.7
20260904115016 63 360 2.0 8.0 0.00 0.00 0.00 94 1011.6
20260904114529 63 360 1.0 5.0 0.00 0.00 0.00 94 1011.5
20260904114017 63 360 1.0 5.0 0.00 0.00 0.00 94 1011.5
20260904113516 63 360 2.0 5.0 0.00 0.00 0.00 94 1011.4
20260904113015 63 280 1.0 4.0 0.00 0.00 0.00 94 1011.5
20260904112514 62 301 1.0 5.0 0.00 0.00 0.00 94 1011.3
20260904112013 62 248 2.0 5.0 0.00 0.00 0.00 94 1011.2
20260904111523 62 288 2.0 7.0 0.00 0.00 0.00 94 1011.2
20260904111013 62 271 3.0 7.0 0.00 0.00 0.00 94 1011.2
20260904110512 62 304 2.0 7.0 0.00 0.00 0.00 94 1011.2
20260904110012 62 295 2.0 6.0 0.00 0.00 0.00 94 1011.1
20260904105513 62 305 2.0 5.0 0.00 0.00 0.00 94 1011.0
20260904105011 62 276 0.0 6.0 0.00 0.00 0.00 94 1010.9
20260904104510 62 360 1.0 6.0 0.00 0.00 0.00 94 1010.9
20260904104011 62 264 0.0 4.0 0.00 0.00 0.00 94 1010.8
20260904103510 62 360 0.0 4.0 0.00 0.00 0.00 94 1010.8
20260904103011 62 360 0.0 0.0 0.00 0.00 0.00 94 1010.8
20260904102513 62 360 0.0 0.0 0.00 0.00 0.00 94 1010.7
20260904102010 62 223 0.0 0.0 0.00 0.00 0.00 94 1010.6
20260904101510 62 222 0.0 0.0 0.00 0.00 0.00 94 1010.6
20260904101009 62 223 0.0 1.0 0.00 0.00 0.00 94 1010.6
20260904100509 62 360 0.0 1.0 0.00 0.00 0.00 94 1010.6
20260904100010 62 360 0.0 2.0 0.00 0.00 0.00 94 1010.6
20260904095513 62 360 1.0 2.0 0.00 0.00 0.00 94 1010.6
20260904095008 62 360 0.0 2.0 0.00 0.00 0.00 94 1010.5
20260904094518 62 360 0.0 3.0 0.00 0.00 0.00 94 1010.5
20260904094008 62 360 0.0 3.0 0.00 0.00 0.00 94 1010.5
20260904093508 62 317 0.0 2.0 0.00 0.00 0.00 94 1010.4
20260904093008 61 259 0.0 0.0 0.00 0.00 0.00 94 1010.4
20260904092511 60 260 0.0 0.0 0.00 0.00 0.00 94 1010.3
20260904092009 60 259 0.0 0.0 0.00 0.00 0.00 94 1010.3
20260904091507 60 260 0.0 0.0 0.00 0.00 0.00 94 1010.2
20260904091008 60 260 0.0 0.0 0.00 0.00 0.00 94 1010.3
20260904090508 60 260 0.0 0.0 0.00 0.00 0.00 94 1010.2
20260904090007 60 260 0.0 0.0 0.00 0.00 0.00 94 1010.3
20260904085507 60 260 0.0 0.0 0.00 0.00 0.00 94 1010.2
20260904085007 60 260 0.0 0.0 0.00 0.00 0.00 93 1010.2
20260904084511 61 360 0.0 0.0 0.00 0.00 0.00 94 1010.2
20260904084006 61 260 0.0 0.0 0.00 0.00 0.00 94 1010.2
20260904083508 61 260 0.0 1.0 0.00 0.00 0.00 94 1010.2
20260904083010 61 260 0.0 1.0 0.00 0.00 0.00 94 1010.2
20260904082507 61 309 0.0 0.0 0.00 0.00 0.00 94 1010.2
20260904082009 62 309 0.0 4.0 0.00 0.00 0.00 94 1010.2
20260904081507 61 308 0.0 4.0 0.00 0.00 0.00 94 1010.2
20260904081003 61 297 0.0 0.0 0.00 0.00 0.00 94 1010.1
20260904080503 61 296 0.0 0.0 0.00 0.00 0.00 94 1010.0
20260904080006 61 297 0.0 0.0 0.00 0.00 0.00 93 1010.1
20260904075503 61 297 0.0 0.0 0.00 0.00 0.00 93 1010.1
20260904075002 61 297 0.0 0.0 0.00 0.00 0.00 93 1010.0
20260904074501 61 298 0.0 0.0 0.00 0.00 0.00 93 1010.0
20260904074002 61 298 0.0 0.0 0.00 0.00 0.00 93 1010.0
20260904073502 61 298 0.0 0.0 0.00 0.00 0.00 93 1010.1
20260904073001 61 298 0.0 0.0 0.00 0.00 0.00 93 1010.0
20260904072601 60 297 0.0 0.0 0.00 0.00 0.00 93 1010.0
20260904072100 60 360 0.0 0.0 0.00 0.00 0.00 93 1009.9
20260904071559 60 360 0.0 0.0 0.00 0.00 0.00 93 1010.0
20260904071059 60 298 0.0 0.0 0.00 0.00 0.00 93 1010.0
20260904070558 60 298 0.0 0.0 0.00 0.00 0.00 93 1010.0
20260904070100 60 298 0.0 0.0 0.00 0.00 0.00 93 1009.9
20260904065556 61 298 0.0 0.0 0.00 0.00 0.00 92 1010.0
20260904065055 61 298 0.0 0.0 0.00 0.00 0.00 92 1010.0
20260904064554 61 298 0.0 0.0 0.00 0.00 0.00 92 1010.1
20260904064053 62 298 0.0 0.0 0.00 0.00 0.00 92 1010.1
20260904063555 62 298 0.0 0.0 0.00 0.00 0.00 92 1010.1
20260904063058 62 298 0.0 0.0 0.00 0.00 0.00 92 1010.2
20260904062554 62 298 0.0 0.0 0.00 0.00 0.00 92 1010.1
20260904062051 62 298 0.0 0.0 0.00 0.00 0.00 92 1010.3
20260904061550 62 298 0.0 0.0 0.00 0.00 0.00 92 1010.3